Tracking 19709 objects as of 20-Jun-2019
HD Live streaming from Space Station
objects crossing your sky now

LEMUR 2 ANDIS

Track LEMUR 2 ANDIS now!
10-day predictions
LEMUR 2 ANDIS is classified as:


NORAD ID: 42838
Int'l Code: 2017-042P
Perigee: 589.0 km
Apogee: 609.4 km
Inclination: 97.6 °
Period: 96.5 minutes
Semi major axis: 6970 km
RCS: Unknown
Launch date: July 14, 2017
Source: United States (US)
Launch site: TYURATAM MISSILE AND SPACE COMPLEX (TTMTR)
aabbcc
Your satellite tracking list
Your tracking list is empty




NASA's NSSDC Master Catalog

Two Line Element Set (TLE):
1 42838U 17042P   19171.17502206  .00000313  00000-0  36242-4 0  9999
2 42838  97.5666  64.7912 0014627  55.0506 305.2084 14.91882374105214
Source of the keplerian elements: AFSPC